period_start,C,m1,H,J0,J1,J2,J3,J4,J5,JA,JB,JC,JD,JJ,JK,JN,#
2016-06-25 00:04:45,0.02,0.29,0.00,23.96,28.55,31.32,14.46,44.11,1016.80,2033.34,3409.65,2973.00,3375.97,600.33,594.68,24.05,0000 0000 0000 0000 000000
2016-06-25 00:09:46,-0.01,0.29,0.00,23.98,28.55,31.32,14.40,44.15,1016.75,2033.27,3409.46,2973.00,3375.97,599.72,594.06,24.10,0000 0000 0000 0000 000000
2016-06-25 00:14:48,0.01,0.29,0.00,23.97,28.55,31.34,14.47,44.14,1016.66,2033.16,3409.03,2973.00,3375.82,600.13,594.23,24.15,0000 0000 0000 0000 000000
2016-06-25 00:19:49,-0.01,0.29,0.00,24.03,28.56,31.31,14.50,44.26,1016.66,2033.14,3409.01,2973.00,3375.44,600.28,594.24,24.20,0000 0000 0000 0000 000000
2016-06-25 00:24:51,0.01,0.29,0.00,24.05,28.57,31.31,14.43,44.19,1016.78,2033.14,3409.00,2972.97,3375.16,599.95,593.98,24.25,0000 0000 0000 0000 000000
2016-06-25 00:29:52,-0.00,0.29,0.00,24.05,28.57,31.32,14.53,44.26,1016.97,2033.12,3408.98,2972.89,3375.03,600.17,594.29,24.30,0000 0000 0000 0000 000000
2016-06-25 00:34:53,0.01,0.29,0.00,24.09,28.57,31.30,14.32,43.92,1017.01,2033.06,3408.78,2972.50,3375.00,600.31,594.37,24.35,0000 0000 0000 0000 000000
2016-06-25 00:39:54,0.01,0.29,0.00,24.08,28.57,31.30,14.34,44.07,1017.07,2033.08,3408.30,2972.23,3375.00,599.68,593.80,24.40,0000 0000 0000 0000 000000
2016-06-25 00:44:56,0.00,0.29,0.00,24.12,28.57,31.29,14.41,44.10,1017.10,2033.11,3408.12,2972.13,3374.99,599.78,593.85,24.45,0000 0000 0000 0000 000000
2016-06-25 00:49:57,-0.00,0.29,0.00,24.12,28.57,31.30,14.53,44.34,1017.10,2033.06,3408.12,2972.03,3374.98,600.47,594.50,24.50,0000 0000 0000 0000 000000
2016-06-25 00:54:57,0.00,0.29,0.00,24.18,28.57,31.29,14.38,44.18,1017.10,2033.09,3408.02,2972.03,3374.98,599.96,593.89,24.55,0000 0000 0000 0000 000000
2016-06-25 00:59:59,-0.00,0.29,0.00,24.19,28.57,31.29,14.42,44.14,1017.11,2033.03,3408.00,2972.01,3374.83,600.03,593.94,24.60,0000 0000 0000 0000 000000
2016-06-25 01:05:00,0.01,0.29,0.00,24.22,28.57,31.29,14.41,44.15,1017.13,2033.01,3408.00,2972.00,3374.30,599.92,593.95,24.65,0000 0000 0000 0000 000000
2016-06-25 01:10:01,0.00,0.29,0.00,24.22,28.57,31.28,14.37,44.05,1017.15,2033.00,3407.96,2971.99,3374.04,599.76,593.57,24.70,0000 0000 0000 0000 000000
2016-06-25 01:15:02,0.00,0.29,0.00,24.24,28.57,31.29,14.39,44.12,1017.23,2033.00,3407.77,2971.96,3374.00,600.25,594.18,24.75,0000 0000 0000 0000 000000
2016-06-25 01:20:04,0.00,0.29,0.00,24.25,28.58,31.29,14.44,44.00,1017.42,2033.00,3407.88,2971.97,3374.00,600.20,594.23,24.80,0000 0000 0000 0000 000000
2016-06-25 01:25:05,0.00,0.29,0.00,24.29,28.58,31.26,14.41,43.99,1017.50,2033.00,3407.87,2971.96,3374.00,600.13,594.18,24.85,0000 0000 0000 0000 000000
2016-06-25 01:30:06,0.01,0.29,0.00,24.32,28.60,31.27,14.37,43.92,1017.55,2033.00,3407.43,2971.93,3374.00,600.07,594.01,24.90,0000 0000 0000 0000 000000
2016-06-25 01:35:07,0.01,0.29,0.00,24.34,28.60,31.26,14.46,44.19,1017.58,2033.00,3407.18,2971.84,3374.00,600.10,593.88,24.95,0000 0000 0000 0000 000000
2016-06-25 01:40:08,0.01,0.29,0.00,24.34,28.60,31.27,14.42,44.12,1017.58,2033.00,3407.07,2971.55,3373.99,600.10,594.12,25.00,0000 0000 0000 0000 000000
2016-06-25 01:45:09,0.01,0.29,0.00,24.37,28.60,31.28,14.45,44.24,1017.59,2033.00,3407.00,2971.09,3373.92,600.05,593.87,25.05,0000 0000 0000 0000 000000
2016-06-25 01:50:11,0.01,0.29,0.00,24.40,28.61,31.27,14.32,43.91,1017.59,2033.00,3406.92,2971.00,3373.26,599.82,593.65,25.10,0000 0000 0000 0000 000000
2016-06-25 01:55:12,0.00,0.29,0.00,24.40,28.62,31.26,14.30,43.86,1017.59,2033.00,3406.44,2971.00,3373.00,599.95,593.70,25.15,0000 0000 0000 0000 000000
2016-06-25 02:00:14,0.00,0.29,0.00,24.41,28.62,31.26,14.35,44.02,1017.59,2033.00,3406.05,2970.98,3373.00,600.27,594.11,25.20,0000 0000 0000 0000 000000
2016-06-25 02:05:15,0.00,0.29,0.00,24.45,28.62,31.25,14.38,44.12,1017.59,2033.00,3406.00,2970.95,3373.00,600.12,593.78,25.25,0000 0000 0000 0000 000000
2016-06-25 02:10:16,0.00,0.29,0.00,24.48,28.63,31.26,14.45,44.17,1017.59,2033.00,3405.99,2970.86,3372.99,600.16,593.79,25.30,0000 0000 0000 0000 000000
2016-06-25 02:15:17,0.00,0.29,0.00,24.50,28.65,31.27,14.34,44.23,1017.59,2033.00,3405.97,2970.69,3372.96,599.86,593.61,25.35,0000 0000 0000 0000 000000
2016-06-25 02:20:18,0.02,0.30,0.00,24.52,28.65,31.27,14.40,44.31,1017.60,2033.00,3405.64,2970.15,3372.51,600.31,593.88,25.40,0000 0000 0000 0000 000000
2016-06-25 02:25:20,0.00,0.30,0.00,24.55,28.65,31.29,14.35,44.09,1017.61,2032.99,3405.43,2970.04,3372.18,599.83,593.44,25.45,0000 0000 0000 0000 000000
2016-06-25 02:30:21,0.01,0.30,0.00,24.57,28.67,31.29,14.41,44.18,1017.68,2032.99,3405.42,2970.02,3372.04,600.20,593.75,25.50,0000 0000 0000 0000 000000
2016-06-25 02:35:22,0.00,0.30,0.00,24.58,28.67,31.28,14.41,44.13,1017.68,2032.99,3405.06,2970.01,3372.01,600.09,593.54,25.55,0000 0000 0000 0000 000000
2016-06-25 02:40:23,-0.00,0.30,0.00,24.59,28.67,31.30,14.27,44.02,1017.76,2032.98,3405.00,2970.00,3372.00,600.11,593.56,25.60,0000 0000 0000 0000 000000
2016-06-25 02:45:25,0.02,0.30,0.00,24.61,28.69,31.30,14.41,44.23,1017.75,2032.98,3404.69,2969.77,3371.73,599.90,593.42,25.65,0000 0000 0000 0000 000000
2016-06-25 02:50:26,0.06,0.30,0.00,24.64,28.70,31.31,14.32,43.98,1017.77,2032.97,3403.12,2968.85,3370.57,599.94,593.47,25.70,0000 0000 0000 0000 000000
2016-06-25 02:55:27,0.03,0.30,0.00,24.65,28.70,31.31,14.29,43.93,1017.77,2032.96,3402.68,2968.07,3370.02,599.95,593.28,25.75,0000 0000 0000 0000 000000
2016-06-25 03:00:29,0.00,0.30,0.00,24.67,28.72,31.33,14.37,44.22,1017.86,2032.96,3402.06,2968.00,3369.96,599.89,593.39,25.80,0000 0000 0000 0000 000000
2016-06-25 03:05:30,0.03,0.30,0.00,24.68,28.72,31.32,14.43,44.09,1018.00,2032.83,3401.71,2967.48,3369.19,600.05,593.52,25.85,0000 0000 0000 0000 000000
2016-06-25 03:10:31,-0.04,0.30,0.00,24.71,28.72,31.33,14.32,44.31,1018.05,2032.32,3401.04,2967.00,3368.83,600.02,593.46,25.90,0000 0000 0000 0000 000000
2016-06-25 03:15:32,0.02,0.30,0.00,24.72,28.75,31.34,14.35,44.23,1018.05,2032.20,3400.64,2966.71,3368.11,600.06,593.57,25.95,0000 0000 0000 0000 000000
2016-06-25 03:20:34,0.01,0.31,0.00,24.75,28.75,31.35,14.31,44.22,1018.04,2032.06,3400.07,2966.12,3368.00,599.95,593.34,26.00,0000 0000 0000 0000 000000
2016-06-25 03:25:35,0.00,0.31,0.00,24.76,28.75,31.35,14.32,44.08,1018.06,2032.06,3400.00,2966.04,3367.99,600.02,593.42,26.05,0000 0000 0000 0000 000000
2016-06-25 03:30:36,0.00,0.31,0.00,24.78,28.77,31.36,14.29,44.12,1018.08,2032.07,3399.98,2966.01,3367.97,600.09,593.26,26.10,0000 0000 0000 0000 000000
2016-06-25 03:35:37,0.00,0.31,0.00,24.80,28.77,31.36,14.36,44.31,1018.08,2032.07,3399.88,2966.00,3367.90,599.61,592.80,26.15,0000 0000 0000 0000 000000
2016-06-25 03:40:39,0.01,0.31,0.00,24.81,28.77,31.37,14.36,43.92,1018.08,2032.07,3399.50,2966.00,3367.73,599.97,593.31,26.20,0000 0000 0000 0000 000000
2016-06-25 03:45:40,0.01,0.31,0.00,24.83,28.79,31.37,14.36,44.03,1018.08,2032.06,3399.08,2966.00,3367.27,600.01,593.24,26.25,0000 0000 0000 0000 000000
2016-06-25 03:50:41,0.00,0.31,0.00,24.85,28.80,31.38,14.39,44.25,1018.08,2032.04,3399.00,2965.98,3367.05,600.19,593.33,26.30,0000 0000 0000 0000 000000
2016-06-25 03:55:43,0.00,0.31,0.00,24.86,28.80,31.40,14.37,44.03,1018.09,2032.05,3398.99,2965.90,3367.00,599.83,592.99,26.35,0000 0000 0000 0000 000000
2016-06-25 04:00:44,0.02,0.31,0.00,24.87,28.80,31.41,14.35,43.75,1018.08,2032.07,3398.75,2965.55,3367.00,600.12,593.26,26.40,0000 0000 0000 0000 000000
2016-06-25 04:05:45,0.01,0.31,0.00,24.89,28.81,31.41,14.32,44.00,1018.08,2032.04,3398.34,2965.14,3366.98,599.77,592.91,26.45,0000 0000 0000 0000 000000
2016-06-25 04:10:46,0.00,0.31,0.00,24.89,28.82,31.41,14.31,43.88,1018.08,2032.04,3398.05,2965.02,3366.88,599.98,593.23,26.50,0000 0000 0000 0000 000000
2016-06-25 04:15:47,0.01,0.31,0.00,24.91,28.82,31.43,14.31,43.96,1018.09,2032.04,3398.01,2965.00,3366.47,599.84,592.79,26.55,0000 0000 0000 0000 000000
2016-06-25 04:20:48,-0.00,0.31,0.00,24.92,28.82,31.43,14.38,44.13,1018.09,2032.04,3398.00,2965.00,3366.18,599.82,592.78,26.60,0000 0000 0000 0000 000000
2016-06-25 04:25:50,0.00,0.31,0.00,24.94,28.82,31.45,14.34,44.17,1018.08,2032.05,3397.99,2965.00,3366.04,600.09,593.02,26.65,0000 0000 0000 0000 000000
2016-06-25 04:30:51,-0.00,0.31,0.00,24.95,28.83,31.45,14.33,43.92,1018.08,2032.03,3397.97,2964.98,3366.01,599.98,593.02,26.70,0000 0000 0000 0000 000000
2016-06-25 04:35:52,0.00,0.31,0.00,24.95,28.85,31.45,14.36,43.87,1018.09,2032.02,3397.83,2964.98,3366.00,599.93,592.92,26.75,0000 0000 0000 0000 000000
2016-06-25 04:40:53,0.01,0.31,0.00,24.98,28.85,31.46,14.32,43.88,1018.10,2032.01,3397.37,2964.93,3366.00,599.89,592.79,26.81,0000 0000 0000 0000 000000
2016-06-25 04:45:55,0.02,0.31,0.00,24.99,28.85,31.46,14.34,44.01,1018.12,2032.00,3397.03,2964.57,3365.96,600.13,593.05,26.86,0000 0000 0000 0000 000000
2016-06-25 04:50:56,0.00,0.31,0.00,25.00,28.85,31.46,14.33,44.01,1018.17,2032.00,3397.00,2964.26,3365.91,599.74,592.59,26.91,0000 0000 0000 0000 000000
2016-06-25 04:55:57,0.01,0.31,0.00,25.02,28.85,31.47,14.29,43.83,1018.29,2032.00,3397.00,2964.04,3365.22,599.68,592.64,26.96,0000 0000 0000 0000 000000
2016-06-25 05:00:58,0.01,0.31,0.00,25.03,28.87,31.48,14.26,43.55,1018.29,2032.00,3396.47,2963.98,3365.00,599.92,592.90,27.01,0000 0000 0000 0000 000000
2016-06-25 05:05:59,0.00,0.31,0.00,25.05,28.87,31.47,14.37,43.69,1018.34,2032.00,3396.18,2963.93,3364.96,600.37,593.32,27.06,0000 0000 0000 0000 000000
2016-06-25 05:11:01,0.01,0.31,0.00,25.06,28.87,31.47,14.31,43.98,1018.43,2032.00,3396.06,2963.58,3364.76,600.10,593.08,27.11,0000 0000 0000 0000 000000
2016-06-25 05:16:02,0.00,0.31,0.00,25.07,28.87,31.48,14.38,43.79,1018.50,2032.00,3396.02,2963.39,3364.49,600.32,593.26,27.16,0000 0000 0000 0000 000000
2016-06-25 05:21:03,0.01,0.32,0.00,25.09,28.87,31.49,14.30,43.82,1018.54,2031.99,3396.01,2963.26,3364.25,600.03,593.02,27.21,0000 0000 0000 0000 000000
2016-06-25 05:26:04,0.00,0.32,0.00,25.09,28.89,31.50,14.33,43.85,1018.55,2031.99,3396.00,2963.11,3364.10,599.94,592.93,27.26,0000 0000 0000 0000 000000
2016-06-25 05:31:06,0.00,0.32,0.00,25.11,28.90,31.49,14.37,43.83,1018.56,2031.99,3396.00,2963.04,3364.04,600.22,593.20,27.31,0000 0000 0000 0000 000000
2016-06-25 05:36:07,0.00,0.32,0.00,25.12,28.90,31.50,14.26,43.86,1018.57,2031.98,3396.00,2963.01,3364.01,599.85,592.80,27.36,0000 0000 0000 0000 000000
2016-06-25 05:41:08,-0.00,0.32,0.00,25.13,28.90,31.52,14.38,43.92,1018.57,2031.96,3396.00,2963.00,3364.00,600.20,593.15,27.41,0000 0000 0000 0000 000000
2016-06-25 05:46:10,0.00,0.32,0.00,25.15,28.91,31.53,14.40,43.99,1018.57,2031.97,3395.88,2963.00,3363.99,599.99,592.84,27.46,0000 0000 0000 0000 000000
2016-06-25 05:51:11,0.01,0.32,0.00,25.17,28.92,31.52,14.37,44.13,1018.57,2031.95,3395.34,2962.98,3363.97,599.82,592.58,27.51,0000 0000 0000 0000 000000
2016-06-25 05:56:12,0.01,0.32,0.00,25.18,28.92,31.53,14.31,44.05,1018.58,2031.96,3395.01,2962.96,3363.85,600.07,592.85,27.56,0000 0000 0000 0000 000000
2016-06-25 06:01:13,-0.00,0.32,0.00,25.19,28.92,31.53,14.31,43.79,1018.57,2031.94,3395.00,2962.93,3363.79,599.82,592.55,27.61,0000 0000 0000 0000 000000
2016-06-25 06:06:15,0.00,0.32,0.00,25.20,28.94,31.54,14.38,44.02,1018.60,2031.93,3395.00,2962.93,3363.60,600.33,592.99,27.66,0000 0000 0000 0000 000000
2016-06-25 06:11:16,0.01,0.32,0.00,25.22,28.95,31.55,14.35,43.94,1018.59,2031.95,3395.00,2962.83,3363.22,600.00,592.69,27.71,0000 0000 0000 0000 000000
2016-06-25 06:16:17,0.00,0.32,0.00,25.24,28.95,31.55,14.39,43.76,1018.61,2031.97,3394.97,2962.71,3363.11,600.21,592.76,27.76,0000 0000 0000 0000 000000
2016-06-25 06:21:18,0.01,0.32,0.00,25.24,28.95,31.56,14.32,43.91,1018.84,2031.97,3394.94,2962.57,3363.05,599.76,592.47,27.81,0000 0000 0000 0000 000000
2016-06-25 06:26:19,0.01,0.32,0.00,25.26,28.95,31.55,14.35,43.82,1019.03,2031.93,3394.71,2962.15,3363.00,600.05,592.99,27.86,0000 0000 0000 0000 000000
2016-06-25 06:31:21,-0.01,0.32,0.00,25.27,28.96,31.55,14.35,43.87,1019.06,2031.88,3394.58,2962.05,3363.00,600.05,593.01,27.91,0000 0000 0000 0000 000000
2016-06-25 06:36:22,-0.01,0.32,0.00,25.28,28.97,31.56,14.34,43.82,1019.06,2031.65,3394.05,2962.00,3363.00,599.89,592.83,27.96,0000 0000 0000 0000 000000
2016-06-25 06:41:23,-0.00,0.32,0.00,25.31,28.97,31.57,14.32,43.73,1019.06,2031.62,3394.02,2962.00,3362.99,599.89,592.63,28.01,0000 0000 0000 0000 000000
2016-06-25 06:46:24,-0.01,0.32,0.00,25.32,28.97,31.58,14.31,43.85,1019.10,2031.41,3394.01,2962.00,3362.96,599.82,592.69,28.06,0000 0000 0000 0000 000000
2016-06-25 06:51:25,-0.01,0.32,0.00,25.33,28.98,31.58,14.28,43.93,1019.13,2031.38,3394.00,2962.00,3362.87,599.97,592.96,28.11,0000 0000 0000 0000 000000
2016-06-25 06:56:26,-0.01,0.32,0.00,25.35,29.00,31.59,14.39,44.04,1019.19,2031.16,3393.97,2961.98,3362.28,600.24,593.05,28.16,0000 0000 0000 0000 000000
2016-06-25 07:01:28,0.00,0.32,0.00,25.37,29.00,31.58,14.34,43.81,1019.41,2031.13,3393.93,2961.96,3362.14,599.93,592.82,28.21,0000 0000 0000 0000 000000
2016-06-25 07:06:29,0.00,0.32,0.00,25.37,29.00,31.60,14.27,43.81,1019.51,2031.11,3393.87,2961.94,3362.07,599.94,592.93,28.26,0000 0000 0000 0000 000000
2016-06-25 07:11:31,0.01,0.32,0.00,25.39,29.00,31.61,14.37,43.71,1019.50,2031.12,3393.50,2961.87,3362.02,600.05,593.03,28.31,0000 0000 0000 0000 000000
2016-06-25 07:16:32,0.01,0.32,0.00,25.41,29.00,31.61,14.31,43.91,1019.54,2031.07,3393.09,2961.47,3362.01,600.01,592.96,28.36,0000 0000 0000 0000 000000
2016-06-25 07:21:33,0.01,0.32,0.00,25.43,29.02,31.61,14.40,44.01,1019.55,2031.07,3393.01,2961.27,3362.00,600.25,593.05,28.41,0000 0000 0000 0000 000000
2016-06-25 07:26:35,-0.00,0.32,0.00,25.45,29.02,31.61,14.32,43.86,1019.55,2031.01,3393.00,2961.07,3362.00,600.04,592.82,28.46,0000 0000 0000 0000 000000
2016-06-25 07:31:36,0.00,0.32,0.00,25.47,29.02,31.61,14.32,43.97,1019.55,2031.00,3393.00,2961.00,3361.99,600.13,592.95,28.51,0000 0000 0000 0000 000000
2016-06-25 07:36:37,0.00,0.32,0.00,25.50,29.03,31.61,14.30,44.09,1019.55,2031.01,3393.00,2961.02,3361.97,599.68,592.54,28.56,0000 0000 0000 0000 000000
2016-06-25 07:41:38,0.00,0.32,0.00,25.51,29.04,31.61,14.33,43.97,1019.55,2031.00,3393.00,2961.01,3361.95,600.14,592.79,28.61,0000 0000 0000 0000 000000
2016-06-25 07:46:40,0.00,0.32,0.00,25.52,29.05,31.63,14.37,43.98,1019.55,2031.00,3392.97,2961.01,3361.80,600.07,592.71,28.66,0000 0000 0000 0000 000000
2016-06-25 07:51:41,0.00,0.32,0.00,25.55,29.05,31.64,14.29,43.77,1019.55,2031.00,3392.92,2961.00,3361.27,600.04,592.75,28.71,0000 0000 0000 0000 000000
2016-06-25 07:56:42,0.00,0.32,0.00,25.57,29.05,31.65,14.29,43.75,1019.55,2031.00,3392.80,2961.00,3361.14,600.21,592.72,28.76,0000 0000 0000 0000 000000
2016-06-25 08:01:43,0.00,0.32,0.00,25.58,29.06,31.65,14.38,43.90,1019.55,2031.00,3392.46,2960.98,3361.01,600.50,593.17,28.81,0000 0000 0000 0000 000000
2016-06-25 08:06:44,0.00,0.32,0.00,25.61,29.07,31.67,14.35,44.09,1019.56,2030.98,3392.09,2960.94,3361.00,600.35,592.91,28.86,0000 0000 0000 0000 000000
2016-06-25 08:11:46,0.00,0.32,0.00,25.62,29.07,31.66,14.31,44.10,1019.56,2030.99,3392.03,2960.92,3361.00,599.66,592.16,28.91,0000 0000 0000 0000 000000
2016-06-25 08:16:47,0.04,0.32,0.00,25.65,29.07,31.67,14.29,43.94,1019.57,2030.98,3391.84,2960.38,3360.55,599.69,591.98,28.96,0000 0000 0000 0000 000000
2016-06-25 08:21:48,0.01,0.32,0.00,25.68,29.09,31.68,14.27,44.02,1019.57,2030.98,3391.30,2959.99,3360.01,599.76,592.13,29.01,0000 0000 0000 0000 000000
2016-06-25 08:26:49,0.00,0.32,0.00,25.70,29.10,31.69,14.36,43.77,1019.73,2030.97,3391.05,2959.98,3360.00,600.31,592.84,29.06,0000 0000 0000 0000 000000
2016-06-25 08:31:50,0.00,0.32,0.00,25.71,29.10,31.70,14.37,43.83,1019.91,2030.96,3391.02,2959.95,3359.99,600.50,592.98,29.11,0000 0000 0000 0000 000000
2016-06-25 08:36:52,0.03,0.32,0.00,25.72,29.10,31.71,14.24,43.73,1019.99,2030.95,3390.81,2959.61,3359.72,599.96,592.58,29.16,0000 0000 0000 0000 000000
2016-06-25 08:41:53,0.06,0.33,0.00,25.75,29.10,31.71,14.34,43.96,1020.03,2030.95,3390.03,2958.38,3358.37,600.17,592.80,29.21,0000 0000 0000 0000 000000
2016-06-25 08:46:54,0.00,0.33,0.00,25.76,29.11,31.72,14.36,43.97,1020.03,2030.93,3389.99,2958.15,3358.14,599.80,592.29,29.26,0000 0000 0000 0000 000000
2016-06-25 08:51:56,-0.00,0.33,0.00,25.77,29.12,31.72,14.30,43.75,1020.04,2030.89,3389.95,2958.12,3358.09,599.95,592.41,29.31,0000 0000 0000 0000 000000
2016-06-25 08:56:57,0.00,0.33,0.00,25.77,29.12,31.74,14.34,43.89,1020.04,2030.80,3389.75,2958.03,3358.01,599.90,592.39,29.36,0000 0000 0000 0000 000000
2016-06-25 09:01:58,-0.04,0.33,0.00,25.79,29.12,31.75,14.31,43.92,1020.04,2030.46,3389.23,2958.00,3358.00,599.91,592.34,29.41,0000 0000 0000 0000 000000
2016-06-25 09:07:00,0.00,0.33,0.00,25.80,29.12,31.77,14.27,43.98,1020.05,2030.34,3389.10,2958.00,3358.00,599.69,592.20,29.46,0000 0000 0000 0000 000000
2016-06-25 09:12:01,0.00,0.33,0.00,25.80,29.12,31.76,14.33,43.89,1020.04,2030.30,3389.05,2958.00,3358.00,600.03,592.40,29.51,0000 0000 0000 0000 000000
2016-06-25 09:17:02,-0.01,0.32,0.00,25.82,29.12,31.76,14.32,43.85,1020.04,2030.15,3389.00,2958.00,3357.95,600.36,592.87,29.56,0000 0000 0000 0000 000000
2016-06-25 09:22:03,-0.00,0.32,0.00,25.82,29.13,31.75,14.28,43.83,1020.04,2030.10,3389.00,2957.98,3357.89,599.74,592.06,29.61,0000 0000 0000 0000 000000
2016-06-25 09:27:05,0.03,0.32,0.00,25.85,29.14,31.77,14.29,44.00,1020.04,2030.05,3388.77,2957.65,3357.43,599.97,592.24,29.66,0000 0000 0000 0000 000000
2016-06-25 09:32:06,0.02,0.33,0.00,25.85,29.15,31.77,14.29,43.86,1020.04,2030.06,3388.11,2957.02,3357.00,600.06,592.44,29.71,0000 0000 0000 0000 000000
2016-06-25 09:37:07,-0.00,0.33,0.00,25.87,29.15,31.77,14.32,43.84,1020.04,2030.09,3388.03,2957.00,3357.00,600.06,592.50,29.76,0000 0000 0000 0000 000000
2016-06-25 09:42:09,0.00,0.33,0.00,25.89,29.15,31.77,14.32,43.84,1020.05,2030.08,3388.03,2957.01,3356.99,599.68,591.94,29.81,0000 0000 0000 0000 000000
2016-06-25 09:47:10,-0.00,0.33,0.00,25.90,29.15,31.78,14.32,43.88,1020.08,2030.04,3388.00,2957.00,3356.95,600.14,592.45,29.86,0000 0000 0000 0000 000000
2016-06-25 09:52:11,0.00,0.33,0.00,25.91,29.15,31.79,14.28,43.96,1020.11,2030.02,3388.00,2956.99,3356.87,599.81,592.10,29.91,0000 0000 0000 0000 000000
2016-06-25 09:57:12,0.01,0.33,0.00,25.92,29.15,31.78,14.35,43.79,1020.15,2030.01,3387.97,2956.98,3356.35,600.20,592.41,29.96,0000 0000 0000 0000 000000
2016-06-25 10:02:14,-0.00,0.33,0.00,25.92,29.17,31.80,14.29,43.90,1020.24,2030.01,3387.96,2956.98,3356.15,599.78,592.09,30.01,0000 0000 0000 0000 000000
2016-06-25 10:07:15,0.00,0.33,0.00,25.95,29.17,31.81,14.29,43.92,1020.45,2030.01,3387.89,2956.96,3356.09,599.91,592.37,30.06,0000 0000 0000 0000 000000
2016-06-25 10:12:17,0.00,0.33,0.00,25.97,29.17,31.81,14.32,43.93,1020.47,2030.02,3387.78,2956.94,3356.02,600.24,592.49,30.11,0000 0000 0000 0000 000000
2016-06-25 10:17:18,0.01,0.33,0.00,25.97,29.17,31.82,14.36,43.85,1020.51,2030.00,3387.46,2956.72,3356.00,600.34,592.76,30.16,0000 0000 0000 0000 000000
2016-06-25 10:22:19,0.01,0.33,0.00,25.98,29.18,31.81,14.36,43.85,1020.52,2030.00,3387.10,2956.22,3355.99,600.23,592.54,30.21,0000 0000 0000 0000 000000
2016-06-25 10:27:20,0.00,0.33,0.00,26.00,29.20,31.81,14.31,43.81,1020.52,2030.00,3387.05,2956.07,3355.98,599.84,592.09,30.26,0000 0000 0000 0000 000000
2016-06-25 10:32:21,0.00,0.33,0.00,26.00,29.20,31.80,14.28,43.97,1020.53,2030.00,3387.00,2956.03,3355.96,600.17,592.48,30.31,0000 0000 0000 0000 000000
2016-06-25 10:37:23,0.00,0.33,0.00,26.02,29.21,31.80,14.33,43.90,1020.54,2030.00,3387.00,2956.02,3355.93,600.19,592.54,30.36,0000 0000 0000 0000 000000
2016-06-25 10:42:24,0.00,0.33,0.00,26.03,29.22,31.80,14.28,43.83,1020.54,2030.00,3387.00,2956.00,3355.86,599.82,592.07,30.42,0000 0000 0000 0000 000000
2016-06-25 10:47:25,0.01,0.33,0.00,26.05,29.23,31.81,14.29,43.77,1020.54,2029.99,3386.96,2956.00,3355.26,599.69,591.95,30.47,0000 0000 0000 0000 000000
2016-06-25 10:52:26,0.00,0.33,0.00,26.06,29.25,31.82,14.29,43.79,1020.55,2029.98,3386.92,2955.98,3355.01,599.94,592.08,30.52,0000 0000 0000 0000 000000
2016-06-25 10:57:27,-0.00,0.33,0.00,26.09,29.25,31.84,14.21,43.75,1020.55,2029.89,3386.44,2955.79,3355.00,600.07,592.36,30.57,0000 0000 0000 0000 000000
2016-06-25 11:02:29,0.01,0.33,0.00,26.11,29.27,31.87,14.33,43.86,1020.54,2029.78,3386.07,2955.29,3354.97,599.91,592.09,30.62,0000 0000 0000 0000 000000
2016-06-25 11:07:30,-0.03,0.33,0.00,26.13,29.28,31.89,14.27,43.71,1020.55,2029.34,3386.00,2955.01,3354.62,599.84,591.87,30.67,0000 0000 0000 0000 000000
2016-06-25 11:12:32,0.00,0.33,0.00,26.16,29.30,31.93,14.32,43.67,1020.56,2029.19,3386.00,2955.01,3354.40,600.11,592.06,30.72,0000 0000 0000 0000 000000
2016-06-25 11:17:33,0.01,0.33,0.00,26.17,29.31,31.95,14.29,43.86,1020.73,2029.15,3385.99,2955.00,3354.08,600.15,592.15,30.77,0000 0000 0000 0000 000000
2016-06-25 11:22:35,-0.00,0.33,0.00,26.18,29.32,31.97,14.33,43.76,1020.85,2029.04,3385.70,2955.00,3354.00,600.03,592.15,30.82,0000 0000 0000 0000 000000
2016-06-25 11:27:36,0.01,0.33,0.00,26.19,29.33,31.98,14.25,43.65,1020.85,2029.02,3385.14,2954.94,3354.00,600.22,592.36,30.87,0000 0000 0000 0000 000000
2016-06-25 11:32:37,0.01,0.33,0.00,26.20,29.35,31.99,14.30,43.79,1020.94,2029.00,3385.01,2954.73,3353.98,600.17,592.42,30.92,0000 0000 0000 0000 000000
2016-06-25 11:37:38,0.03,0.33,0.00,26.20,29.35,32.00,14.28,43.75,1020.91,2029.00,3384.99,2954.08,3353.25,599.92,592.09,30.97,0000 0000 0000 0000 000000
2016-06-25 11:42:40,0.00,0.33,0.00,26.20,29.35,32.00,14.26,43.72,1020.93,2029.00,3384.94,2954.00,3353.04,599.83,591.97,31.02,0000 0000 0000 0000 000000
2016-06-25 11:47:41,0.00,0.33,0.00,26.19,29.37,32.02,14.32,43.64,1020.98,2029.00,3384.68,2954.00,3353.01,600.20,592.40,31.07,0000 0000 0000 0000 000000
2016-06-25 11:52:42,0.05,0.33,0.00,26.19,29.37,32.04,14.37,43.71,1021.01,2028.99,3383.92,2953.50,3352.49,600.45,592.59,31.12,0000 0000 0000 0000 000000
2016-06-25 11:57:43,0.01,0.34,0.00,26.17,29.37,32.05,14.31,43.90,1021.01,2028.99,3383.14,2953.01,3352.00,599.92,592.15,31.17,0000 0000 0000 0000 000000
2016-06-25 12:02:44,0.04,0.34,0.00,26.15,29.37,32.05,14.27,43.85,1021.01,2028.99,3382.72,2952.67,3351.56,599.60,591.92,31.22,0000 0000 0000 0000 000000
2016-06-25 12:07:46,0.08,0.34,0.00,26.12,29.37,32.08,14.26,43.65,1021.01,2028.98,3381.32,2951.31,3349.79,599.69,592.06,31.27,0000 0000 0000 0000 000000
2016-06-25 12:12:47,0.00,0.34,0.00,26.10,29.37,32.07,14.28,43.63,1021.01,2028.97,3380.94,2950.91,3349.09,599.81,592.28,31.32,0000 0000 0000 0000 000000
2016-06-25 12:17:49,0.21,0.35,0.00,26.08,29.37,32.07,14.22,43.76,1021.01,2028.97,3378.35,2947.56,3345.74,599.48,591.94,31.37,0000 0000 0000 0000 000000
2016-06-25 12:22:50,0.01,0.35,0.00,26.06,29.37,32.06,14.30,43.67,1021.01,2028.98,3377.97,2947.04,3345.15,599.83,592.37,31.42,0000 0000 0000 0000 000000
2016-06-25 12:27:51,0.00,0.35,0.00,26.04,29.37,32.06,14.42,43.83,1021.01,2028.99,3377.96,2947.04,3345.11,600.36,592.83,31.47,0000 0000 0000 0000 000000
2016-06-25 12:32:52,0.01,0.35,0.00,26.02,29.37,32.05,14.32,43.75,1021.01,2028.99,3377.36,2947.01,3345.02,599.87,592.38,31.52,0000 0000 0000 0000 000000
2016-06-25 12:37:53,0.00,0.35,0.00,26.00,29.36,32.05,14.33,43.63,1021.01,2028.99,3377.01,2946.98,3344.98,599.79,592.51,31.57,0000 0000 0000 0000 000000
2016-06-25 12:42:54,0.00,0.35,0.00,25.99,29.35,32.04,14.32,43.82,1021.01,2028.99,3377.00,2946.96,3344.94,599.86,592.48,31.62,0000 0000 0000 0000 000000
2016-06-25 12:47:56,0.00,0.35,0.00,25.97,29.35,32.05,14.31,43.79,1021.01,2028.99,3377.00,2946.96,3344.95,599.69,592.34,31.67,0000 0000 0000 0000 000000
2016-06-25 12:52:57,0.00,0.35,0.00,25.98,29.35,32.02,14.39,43.76,1021.01,2028.98,3377.01,2946.95,3344.93,600.03,592.85,31.72,0000 0000 0000 0000 000000
2016-06-25 12:57:58,0.01,0.35,0.00,25.97,29.35,32.01,14.28,43.75,1021.01,2028.98,3377.00,2946.87,3344.74,599.55,592.23,31.77,0000 0000 0000 0000 000000